Find Starlink 31484

NORAD ID: 59005 Int'l Des: 2024-036 Owner: SPXS Country: US Constellation: starlink operational
LEOCIRCULAR

現在のビュー

3D地球を読み込み中...

About Starlink 31484

Starlink 31484 (NORAD 59005) is a starlink constellation satellite (v2 mini) launched Feb 23, 2024 by SPXS of US. It operates in LEO, CIRCULAR orbit with a mass of 730.00 kg.

Starlink 31484について

説明を読み込み中...

次回通過

Passes for default location (London). Set your location on the main map for personalized predictions.

高度履歴

Loading altitude history...

軌道要素

1 59005U 24036H 26171.41245089 -.00000514 00000-0 -52144-5 0 9997
2 59005 53.1612 320.7733 0001301 89.3351 270.7799 15.30189881131053
Epoch: Jun 20, 2026 • Age: 25 hours

現在のステータス

高度 487.5 km
速度 7.62 km/s
衛星直下点 -36.18°S, 103.4°E
打ち上げ日 Feb 23, 2024
運用期間 2.3 years
タイプ internet

技術仕様

分類 Payload
質量 730.00 kg
乾燥質量 700.00 kg
総質量 730.00 kg
長さ 0.30 m
直径 4.10 m
スパン 29.00 m
形状 Box + pan
製造者 SPXS
バスタイプ Starlink V2M
フェーズステータス In Orbit
所有者/国 SPXS/US

Most Searched